Weather History for Shanghai Hongqiao, SH

Change the Weather History Date:

Saturday, August 17, 2013

  Actual Average Record
Temperature  
Mean Temperature 89 °F -  
Max Temperature 96 °F 84 °F 96 °F (2005)
Min Temperature 82 °F 72 °F 71 °F (2014)
Cooling Degree Days 24    
Growing Degree Days 39 (Base 50)    
Moisture  
Dew Point 72 °F    
Average Humidity 59    
Maximum Humidity 79    
Minimum Humidity 38    
Precipitation  
Precipitation 0.00 in 0.19 in - ()
Sea Level Pressure  
Sea Level Pressure 29.61 in    
Wind  
Wind Speed 12 mph ()    
Max Wind Speed 18 mph    
Max Gust Speed -    
Visibility 6.2 miles    
Events      
Averages and records for this station are not official NWS values.
T = Trace of Precipitation, MM = Missing Value Source: Averaged Metar Reports

Daily Weather History Graph

Daily Weather History Graph

Search for Another Location

Airport:

Trip Planner

Search our weather history database for the weather conditions in past years. The results will help you decide how hot, cold, wet, or windy it might be!

Date:

Astronomy

Aug. 17, 2013 Rise Set
Actual Time 5:21 AM CST 6:35 PM CST
Civil Twilight 4:56 AM CST 7:01 PM CST
Nautical Twilight 4:25 AM CST 7:31 PM CST
Astronomical Twilight 3:54 AM CST 8:02 PM CST
Moon 3:11 PM CST (8/17) 12:55 AM CST (8/17)
Length of Visible Light 14h 05m
Length of Day
13h 14m
Waxing Gibbous, 79% of the Moon is Illuminated
Aug 17
Waxing Gibbous
Aug 21
Full
Aug 28
Last Quarter
Sep 5
New
Sep 13
First Quarter

Hourly Weather History & Observations

Time (CST) Temp. Heat Index Dew Point Humidity Pressure Visibility Wind Dir Wind Speed Gust Speed Precip Events Conditions
12:00 AM 84.2 °F 92.3 °F 75.2 °F 74% 29.62 in - SSE 17.9 mph - N/A   Clear
12:30 AM 84.2 °F 90.9 °F 73.4 °F 70% 29.62 in - SSE 17.9 mph - N/A   Clear
1:00 AM 84.2 °F 90.9 °F 73.4 °F 70% 29.62 in - SSE 15.7 mph - N/A   Clear
1:30 AM 84.2 °F 90.9 °F 73.4 °F 70% 29.62 in - SSE 13.4 mph - N/A   Clear
2:00 AM 84.2 °F 92.3 °F 75.2 °F 74% 29.62 in - SE 13.4 mph - N/A   Clear
2:30 AM 84.2 °F 92.3 °F 75.2 °F 74% 29.62 in - SSE 13.4 mph - N/A   Clear
3:00 AM 84.2 °F 92.3 °F 75.2 °F 74% 29.62 in - SSE 11.2 mph - N/A   Clear
3:30 AM 84.2 °F 92.3 °F 75.2 °F 74% 29.62 in - SSE 8.9 mph - N/A   Clear
4:00 AM 84.2 °F 90.9 °F 73.4 °F 70% 29.62 in - SSE 8.9 mph - N/A   Clear
4:30 AM 84.2 °F 90.9 °F 73.4 °F 70% 29.62 in - SSE 8.9 mph - N/A   Clear
5:00 AM 82.4 °F 88.2 °F 73.4 °F 74% 29.62 in - SSE 11.2 mph - N/A   Clear
5:30 AM 82.4 °F 89.5 °F 75.2 °F 79% 29.62 in - SSE 11.2 mph - N/A   Clear
6:00 AM 84.2 °F 92.3 °F 75.2 °F 74% 29.62 in - SSE 11.2 mph - N/A   Clear
6:30 AM 84.2 °F 92.3 °F 75.2 °F 74% 29.62 in - SSE 13.4 mph - N/A   Clear
7:00 AM 86.0 °F 95.1 °F 75.2 °F 70% 29.62 in - SSE 11.2 mph - N/A   Clear
7:30 AM 87.8 °F 95.6 °F 73.4 °F 62% 29.65 in - South 11.2 mph - N/A   Clear
8:00 AM 89.6 °F 96.2 °F 71.6 °F 55% 29.65 in - South 13.4 mph - N/A   Clear
8:30 AM 89.6 °F 98.2 °F 73.4 °F 59% 29.65 in - South 11.2 mph - N/A   Clear
9:00 AM 91.4 °F 100.1 °F 73.4 °F 55% 29.65 in - SSE 11.2 mph - N/A   Clear
9:30 AM 91.4 °F 100.1 °F 73.4 °F 55% 29.65 in - SE 11.2 mph - N/A   Clear
10:00 AM 93.2 °F 102.4 °F 73.4 °F 52% 29.65 in - South 8.9 mph - N/A   Clear
10:30 AM 93.2 °F 102.4 °F 73.4 °F 52% 29.62 in - South 8.9 mph - N/A   Clear
11:00 AM 91.4 °F 100.1 °F 73.4 °F 55% 29.62 in 6.2 mi South 11.2 mph - N/A   Scattered Clouds
11:30 AM 93.2 °F 100.5 °F 71.6 °F 49% 29.62 in 6.2 mi SSE 11.2 mph - N/A   Scattered Clouds
12:00 PM 95.0 °F 101.3 °F 69.8 °F 44% 29.62 in 6.2 mi SE 11.2 mph - N/A   Scattered Clouds
12:30 PM 95.0 °F 101.3 °F 69.8 °F 44% 29.62 in 6.2 mi SSE 11.2 mph - N/A   Mostly Cloudy
1:00 PM 95.0 °F 101.3 °F 69.8 °F 44% 29.59 in 6.2 mi SE 13.4 mph - N/A   Mostly Cloudy
1:30 PM 95.0 °F 101.3 °F 69.8 °F 44% 29.59 in 6.2 mi SE 11.2 mph - N/A   Scattered Clouds
2:00 PM 96.8 °F 103.1 °F 69.8 °F 41% 29.59 in 6.2 mi South 8.9 mph - N/A   Scattered Clouds
2:30 PM 96.8 °F 101.8 °F 68.0 °F 39% 29.59 in 6.2 mi South 8.9 mph - N/A   Partly Cloudy
3:00 PM 95.0 °F 99.5 °F 68.0 °F 41% 29.59 in 6.2 mi SSE 8.9 mph - N/A   Partly Cloudy
3:30 PM 95.0 °F 99.5 °F 68.0 °F 41% 29.59 in - SE 13.4 mph - N/A   Clear
4:00 PM 95.0 °F 98.5 °F 66.2 °F 39% 29.56 in - ESE 13.4 mph - N/A   Clear
4:30 PM 95.0 °F 98.5 °F 66.2 °F 39% 29.56 in - SE 11.2 mph - N/A   Clear
5:00 PM 93.2 °F 94.9 °F 64.4 °F 38% 29.56 in - SSE 13.4 mph - N/A   Clear
5:30 PM 93.2 °F 97.7 °F 68.0 °F 44% 29.56 in - SE 13.4 mph - N/A   Clear
6:00 PM 91.4 °F 96.8 °F 69.8 °F 49% 29.59 in - ESE 13.4 mph - N/A   Clear
6:30 PM 89.6 °F 96.2 °F 71.6 °F 55% 29.59 in - SE 13.4 mph - N/A   Clear
7:00 PM 87.8 °F 95.6 °F 73.4 °F 62% 29.59 in - SE 13.4 mph - N/A   Clear
7:30 PM 87.8 °F 95.6 °F 73.4 °F 62% 29.59 in - SE 13.4 mph - N/A   Clear
8:00 PM 87.8 °F 95.6 °F 73.4 °F 62% 29.62 in - SE 11.2 mph - N/A   Clear
8:30 PM 86.0 °F 91.8 °F 71.6 °F 62% 29.62 in - SE 15.7 mph - N/A   Clear
9:00 PM 86.0 °F 93.4 °F 73.4 °F 66% 29.62 in - SSE 13.4 mph - N/A   Clear
9:30 PM 86.0 °F 93.4 °F 73.4 °F 66% 29.62 in - SE 11.2 mph - N/A   Clear
10:00 PM 84.2 °F 90.9 °F 73.4 °F 70% 29.62 in - SE 11.2 mph - N/A   Clear
10:30 PM 84.2 °F 90.9 °F 73.4 °F 70% 29.62 in - SE 11.2 mph - N/A   Clear
11:00 PM 84.2 °F 90.9 °F 73.4 °F 70% 29.62 in - SE 11.2 mph - N/A   Clear
11:30 PM 84.2 °F 90.9 °F 73.4 °F 70% 29.62 in - SE 11.2 mph - N/A   Clear